Starlink 11247

operational
NORAD ID: 60720 Int'l Des: 2024-152 Owner: SPXS Country: US Constellation: starlink
LEOCIRCULAR

Über Starlink 11247

Beschreibung wird geladen...

Live-Position

3D-Globus wird geladen...

Nächste Überflüge

Höhenverlauf

Altitude vs Time

uPlot chart will show altitude changes over time

Zweizeiliger Elementsatz

1 60720U 24152A 25305.60534537 -.00000984 00000-0 -32577-5 0 9999
2 60720 53.1594 27.9871 0001411 111.8199 248.2970 15.69712134 68718
Epoch: 1. Nov. 2025 • Age: 18 hours

Aktueller Status

Höhe 366.1 km
Geschwindigkeit 7.69 km/s
Subsatellitenpunkt -22.27°S, 56.97°E
Startdatum 28. Aug. 2024
Alter 1.1 years
Typ internet

Technische Details

Klassifizierung Payload
Masse 960.00 kg
Trockenmasse 910.00 kg
Gesamtmasse 960.00 kg
Länge 0.30 m
Durchmesser 4.10 m
Spannweite 29.00 m
Form Box + pan
Hersteller SPXS
Bus-Typ Starlink V2MD
Phasenstatus In Orbit
Besitzer/Staat SPXS/US

Große Konstellationen

Loading constellations...